www.pogodaiklimat.ru

Погода и климат >> Архив погоды >> Чехия >> Кучарловице


ПОГОДА в Кучарловице

  • Прогноз погоды в Кучарловице
  • Монитор погоды в Кучарловице

АРХИВ ПОГОДЫ в Кучарловице

Время (UTC), дата Ветер
(напр.,м/с)
 
Видим.   Явления Облачность Т
(С)
Тd
(С)
f
(%)
Тe
(С)
Тes
(С)
Комфортность P
(гПа)
Po
(гПа)
Тmin
(С)
Tmax
(С)
R
(мм)
R24
(мм)
S
(см)
10 12.09 З 4 45 км 1/1 1300 м
[Cu hum]
+20.7 +9.6 49 +22 +29 комфорт 1029.8 990.3
11 12.09 З 5 50 км 1/1 1380 м
[Cu hum]
+21.6 +10.1 48 +23 +28 комфорт 1029.4 990.1
12 12.09 З 5 50 км 5/5 1470 м
[Sc diur, vesp Ci fib]
+21.6 +11.3 52 +24 +26 комфорт 1029.3 990.0
13 12.09 З 5 50 км 6/6 1320 м
[Sc diur, vesp Ci fib]
+21.1 +11.7 55 +23 +25 комфорт 1029.4 990.0
14 12.09 З 5 50 км 4/4 1230 м
[Sc diur, vesp Ci fib]
+21.2 +11.5 54 +23 +25 комфорт 1029.2 989.9
15 12.09 З 4 60 км 1/1 1200 м
[Sc diur, vesp Ci fib]
+21.4 +12.0 55 +24 +25 комфорт 1029.0 989.7
16 12.09 З 5 35 км н/о +21.2 +11.8 55 +23 +23 комфорт 1029.0 989.7
17 12.09 З 3 35 км н/о +19.5 +11.7 61 +21 +21 комфорт 1029.4 989.8
18 12.09 З 2 40 км 1/0
[Ac trans Ci fib]
+19.0 +11.3 61 +20 +20 1029.8 990.1 +23.2
19 12.09 З 2 40 км 6/5 1470 м
[Sc Ci fib]
+18.3 +11.4 64 +19 +19 1030.1 990.3
20 12.09 З 1 40 км 4/3 1440 м
[Sc Ci fib]
+17.2 +11.9 71 +18 +18 1030.3 990.4
21 12.09 СЗ 2 35 км н/о +16.2 +11.9 76 +16 +16 1030.7 990.6
22 12.09 СЗ 2 35 км н/о +15.3 +11.8 80 +15 +15 1030.7 990.5
23 12.09 СЗ 3 35 км н/о +15.0 +12.0 82 +14 +14 1030.7 990.5
00 13.09 СЗ 2 35 км н/о +15.8 +12.2 79 +16 +16 1030.5 990.4
01 13.09 СЗ 3 35 км н/о +15.7 +12.0 79 +15 +15 1030.4 990.3
02 13.09 СЗ 3 35 км н/о +15.6 +12.1 80 +15 +15 1030.3 990.2
03 13.09 СЗ 2 35 км {дымка} н/о +15.5 +12.1 80 +15 +15 1030.1 990.0
04 13.09 СЗ 3 35 км н/о +15.4 +12.1 81 +15 +15 1030.2 990.1
05 13.09 СЗ 2 35 км н/о +15.2 +12.1 82 +15 +15 1030.5 990.3
06 13.09 СЗ 2 50 км 8/8 1500 м
[Sc]
+15.5 +12.3 81 +15 +16 1030.4 990.3 +14.7
07 13.09 СЗ 3 45 км 8/8 1500 м
[Sc Ci fib]
+18.7 +13.1 70 +20 +20 1030.1 990.4
08 13.09 З 4 45 км 1/1 800 м
[Cu Sc Ci fib]
+19.9 +13.6 67 +22 +25 комфорт 1030.0 990.5
09 13.09 З 4 45 км 1/1 960 м
[Cu med, cong Ci fib]
+21.3 +13.5 61 +24 +29 комфорт 1029.5 990.2
10 13.09 З 6
{11}
50 км 4/4 1170 м
[Cu med, cong]
+22.1 +12.4 54 +25 +27 комфорт 1029.2 990.0
11 13.09 З 6 60 км 4/4 1380 м
[Cu med, cong]
+23.4 +12.1 49 +26 +29 жарко 1028.9 989.9
12 13.09 СЗ 5
{11}
60 км 6/6 1410 м
[Cu med, cong]
+23.8 +11.8 47 +25 +27 комфорт 1028.6 989.6
13 13.09 СЗ 5 60 км 8/8 1500 м
[Cu med, cong]
+23.9 +12.2 48 +26 +26 жарко 1028.6 989.6
14 13.09 СЗ 5-10
{11}
60 км 9/9 1500 м
[Cu med, cong]
+23.6 +12.6 50 +26 +26 жарко 1028.4 989.4
15 13.09 СЗ 5
{11}
60 км 9/6 1500 м
[Cu med, cong Ac cuf]
+23.1 +12.4 51 +26 +26 жарко 1028.5 989.4
16 13.09 СЗ 4 35 км н/о +22.0 +12.7 56 +25 +25 комфорт 1028.7 989.5
17 13.09 С 3 35 км н/о +21.0 +13.3 61 +24 +24 комфорт 1029.0 989.7
18 13.09 СЗ 3
{11}
50 км 9/0 2000 м
[As op]
+20.3 +13.5 65 +23 +23 комфорт 1029.5 990.1 +25.4
19 13.09 СЗ 2 50 км 5/0
[Ac trans]
+19.0 +13.4 70 +21 +21 комфорт 1029.7 990.1
20 13.09 СЗ 3 50 км 5/0
[Ac trans]
+17.8 +13.1 74 +18 +18 1030.1 990.3
21 13.09 СЗ 3 35 км {дымка} н/о +17.7 +13.2 75 +18 +18 1030.1 990.3
22 13.09 СЗ 3 35 км н/о +17.4 +13.4 77 +17 +17 1030.3 990.4
23 13.09 С 3 35 км н/о +17.0 +13.6 80 +17 +17 1030.6 990.7
00 14.09 С 3 35 км {дымка} н/о +16.6 +13.7 83 +16 +16 1030.8 990.8
01 14.09 С 3 35 км н/о +16.3 +13.7 85 +16 +16 1030.6 990.6
02 14.09 С 4 35 км н/о +16.5 +13.7 84 +16 +16 1031.1 991.1
03 14.09 нст 2 35 км {дымка} н/о +15.6 +13.0 85 +15 +15 1031.5 991.3
04 14.09 35 км н/о +14.4 +12.1 86 1032.1 991.7
05 14.09 35 км н/о +14.8 +11.4 80 1032.3 992.0
06 14.09 ЮВ 1 50 км 9/9 1500 м
[Sc]
+14.7 +12.2 85 +15 +15 1032.8 992.5 +14.3
07 14.09 50 км 9/9 1500 м
[Sc]
+15.1 +11.5 79 1033.5 993.2
08 14.09 50 км 8/4 720 м
[Sc Ac trans]
+15.6 +11.2 75 1033.1 992.9
09 14.09 нст 1 50 км 9/9 800 м
[Sc]
+17.0 +11.9 72 +18 +19 1032.9 992.9
10 14.09 Ю 2 50 км 9/9 800 м
[Sc]
+17.2 +10.8 66 +18 +19 1032.5 992.5
11 14.09 50 км 9/9 1140 м
[Sc]
+18.7 +11.3 62 1032.0 992.2
12 14.09 нст 1 50 км 9/9 1140 м
[Sc]
+19.1 +10.7 58 +21 +22 комфорт 1031.5 991.8
13 14.09 50 км 9/9 1300 м
[Sc]
+18.9 +10.5 58 1031.0 991.3
14 14.09 50 км 9/9 1500 м
[Sc]
+20.1 +10.2 53 1030.2 990.7
15 14.09 СЗ 2 50 км 6/6 1300 м
[Sc]
+19.7 +9.3 51 +21 +22 комфорт 1029.6 990.0
16 14.09 С 4 35 км н/о +19.0 +8.8 52 +20 +20 1029.1 989.4
17 14.09 35 км н/о +17.6 +9.3 58 1029.4 989.5
18 14.09 С 2 50 км 4/0
[Ci sp]
+16.5 +8.5 59 +17 +17 1029.8 989.8 +20.5
19 14.09 СВ 2 50 км 3/0
[Ci sp]
+15.8 +8.3 61 +16 +16 1030.2 990.1
20 14.09 СВ 2 40 км ясно +14.9 +7.7 62 +15 +15 1030.6 990.3
21 14.09 С 2 35 км {дымка} н/о +12.7 +7.7 72 +12 +12 1031.1 990.5
22 14.09 35 км н/о +12.4 +6.5 67 1030.8 990.2
23 14.09 35 км н/о +11.7 +6.3 69 1030.4 989.7
00 15.09 С 3 35 км {дымка} н/о +9.7 +7.1 84 +7 +7 1030.6 989.6
01 15.09 С 3 35 км н/о +9.0 +7.0 87 +6 +6 1030.1 989.0
02 15.09 С 3 35 км н/о +8.5 +6.6 88 +6 +6 1029.5 988.4
03 15.09 С 2 35 км н/о +8.3 +6.4 88 +6 +6 1029.2 988.0
04 15.09 С 3 30 км н/о +7.8 +6.3 90 +5 +5 1029.0 987.8
05 15.09 С 2 30 км н/о +7.2 +6.1 93 +5 +5 1028.7 987.4
06 15.09 С 3 35 км 1/0
[Ci sp]
+8.9 +6.7 86 +6 +7 1028.8 987.7 +7.1
07 15.09 35 км 3/0
[Ci sp]
+13.0 +7.7 70 1027.8 987.4
08 15.09 ЮВ 2 35 км 3/0
[Ci sp]
+14.9 +7.7 62 +15 +20 1027.0 986.9
09 15.09 ЮВ 3 40 км 3/0
[Ci sp]
+16.5 +8.7 60 +16 +22 1026.6 986.7
10 15.09 Ю 3 40 км 3/0
[Ci sp]
+17.6 +9.2 58 +18 +25 1025.9 986.2
11 15.09 Ю 3 50 км 3/0
[Ci sp]
+19.9 +10.9 56 +22 +30 комфорт 1024.5 985.2
12 15.09 Ю 3 40 км 4/0
[Ci sp]
+20.5 +10.9 54 +23 +30 комфорт 1023.7 984.5
13 15.09 Ю 4 50 км 4/0
[Ci sp]
+21.7 +11.7 53 +24 +28 комфорт 1022.8 983.8
14 15.09 Ю 4 50 км 1/0
[Ci sp]
+22.3 +11.7 51 +25 +28 комфорт 1021.6 982.7
15 15.09 Ю 4 50 км 1/0
[Ci sp]
+22.6 +12.3 52 +25 +27 комфорт 1020.6 981.8
16 15.09 Ю 4 35 км н/о +22.0 +12.5 55 +25 +25 комфорт 1020.4 981.5
17 15.09 Ю 3 35 км н/о +19.4 +12.6 65 +21 +21 комфорт 1020.2 981.0
18 15.09 Ю 3 50 км 8/0
[Cs]
+18.4 +12.4 68 +19 +19 1020.4 981.0 +23.4
19 15.09 Ю 2 50 км 9/0
[Cs]
+18.2 +12.4 69 +19 +19 1020.4 981.0
20 15.09 С 2 50 км 8/0
[Ci sp]
+16.2 +12.4 78 +16 +16 1020.6 980.9
21 15.09 СЗ 2 35 км н/о +15.4 +12.3 82 +15 +15 1020.7 980.9
22 15.09 З 1 35 км н/о +15.2 +12.3 83 +16 +16 1020.7 980.9
23 15.09 СЗ 2 35 км н/о +15.9 +12.4 80 +16 +16 1020.3 980.6
00 16.09 СЗ 3 35 км н/о +15.2 +12.1 82 +14 +14 1020.1 980.3
01 16.09 СЗ 3 35 км н/о +15.3 +11.9 80 +15 +15 1019.8 980.0
02 16.09 СЗ 2 35 км н/о +14.4 +11.9 85 +14 +14 1019.5 979.6
03 16.09 СЗ 4 35 км {дымка} н/о +15.2 +12.0 81 +14 +14 1019.2 979.5
04 16.09 З 2 35 км н/о +14.8 +11.9 83 +14 +14 1018.7 978.9
05 16.09 С 3 35 км н/о +14.1 +11.8 86 +13 +13 1019.4 979.5
06 16.09 СЗ 3 40 км 4/0
[Ci sp]
+14.7 +12.2 85 +14 +14 1019.6 979.8 +13.7
07 16.09 СЗ 3 40 км 4/0
[Ac trans Ci sp]
+17.9 +12.8 72 +18 +20 1019.5 980.1
08 16.09 СЗ 3 40 км 6/0
[Cs]
+19.6 +10.3 55 +21 +25 комфорт 1019.4 980.2
09 16.09 нст 2 40 км 6/0
[Ci sp]
+21.8 +10.9 50 +24 +30 комфорт 1018.9 980.0
10 16.09 40 км 6/0
[Ci sp]
+22.9 +11.3 48 1018.3 979.6
11 16.09 З 5 50 км 8/0
[Cs]
+23.1 +9.1 41 +25 +29 комфорт 1017.6 978.9
12 16.09 СЗ 4 50 км 8/0
[Ci sp]
+23.4 +9.4 41 +25 +30 комфорт 1016.7 978.1
13 16.09 З 5
{12}
50 км 9/1 1500 м
[Cu hum Ci sp]
+24.0 +9.2 39 +25 +28 комфорт 1016.1 977.6
14 16.09 СЗ 4 50 км 9/1 1500 м
[Cu med, cong Ac As Ci sp]
+23.7 +10.4 43 +25 +27 комфорт 1015.6 977.1
15 16.09 З 4
{12}
50 км 9/1 1500 м
[Cu med, cong Ac As Cs]
+24.1 +10.4 42 +25 +26 комфорт 1015.1 976.7
16 16.09 СЗ 2 35 км н/о +23.1 +11.4 48 +25 +25 комфорт 1014.8 976.3
17 16.09 СЗ 2 35 км н/о +22.0 +11.6 52 +24 +24 комфорт 1014.9 976.2
18 16.09 СЗ 2
{12}
40 км 10/0
[Ac As]
+21.4 +11.4 53 +23 +23 комфорт 1015.0 976.2 +25.1
19 16.09 З 3 40 км 10/0
[As op]
+21.0 +11.3 54 +24 +24 комфорт 1015.3 976.5
20 16.09 З 3 40 км 10/0
[As op]
+20.0 +11.2 57 +22 +22 комфорт 1015.9 976.9
21 16.09 СЗ 2 35 км {дымка} н/о +18.6 +11.8 65 +20 +20 1015.8 976.6
22 16.09 СЗ 1 35 км н/о +18.3 +11.8 66 +20 +20 1015.5 976.3
23 16.09 З 2 35 км н/о +18.3 +11.1 63 +19 +19 1015.5 976.3
00 17.09 С 2 35 км {дымка} н/о +17.0 +11.6 70 +17 +17 1015.6 976.2
01 17.09 С 1 35 км в посл. час дождь {ливн. осадки} н/о +16.2 +11.9 76 +17 +17 1015.6 976.1
02 17.09 СЗ 2 30 км слаб. ливневой дождь н/о +15.8 +12.3 80 +16 +16 1015.2 975.7
03 17.09 СЗ 2 30 км слаб. ливневой дождь н/о +15.6 +12.6 82 +15 +15 1015.1 975.6
04 17.09 СЗ 3 29 км {ливн. осадки} н/о +15.3 +12.6 84 +15 +15 1015.1 975.5
05 17.09 С 5 35 км н/о +14.8 +12.1 84 +13 +13 1015.8 976.1
06 17.09 С 6
{11}
25 км 9/9 330 м
[Cu Sc]
+13.5 +10.9 84 +11 +11 1016.5 976.6 +13.5 0.0
07 17.09 С 7 40 км 9/9 500 м
[Cu Sc]
+13.7 +9.4 75 +11 +11 1017.0 977.1
08 17.09 СЗ 6 30 км 9/9 800 м
[Sc]
+13.9 +8.1 68 +12 +12 1017.3 977.4
09 17.09 СЗ 3 40 км 9/9 800 м
[Sc]
+14.7 +8.0 64 +14 +15 1017.0 977.2
10 17.09 40 км 9/9 870 м
[Cu Sc]
+15.5 +8.0 61 1016.5 976.9
11 17.09 З 4 45 км 9/9 900 м
[Cu Sc]
+17.0 +9.4 61 +17 +17 1015.8 976.4
12 17.09 З 6 40 км 8/8 960 м
[Cu Sc Ci fib]
+17.7 +10.1 61 +17 +18 1015.0 975.7
13 17.09 З 7 40 км 9/9 930 м
[Cu Sc Ci fib]
+17.9 +10.5 62 +17 +17 1014.5 975.3
14 17.09 З 6
{11}
40 км 8/6 930 м
[Cu Sc Ci]
+17.9 +10.3 61 +17 +18 1013.9 974.7
15 17.09 З 8-13
{13}
45 км 6/1 1000 м
[Cu med, cong Ci]
+18.2 +10.1 59 +17 +18 1013.4 974.3
16 17.09 СЗ 5
{12}
35 км н/о +17.7 +9.1 57 +17 +17 1013.5 974.3
17 17.09 З 2 35 км н/о +16.5 +9.5 63 +17 +17 1013.7 974.3
18 17.09 З 4
{13}
50 км 6/1 1440 м
[Sc Ac lent Ci sp]
+15.2 +9.3 68 +14 +14 1014.5 974.9 +18.7
19 17.09 СЗ 2 50 км 8/6 1440 м
[Sc Ac lent Ci sp]
+14.4 +9.0 70 +14 +14 1015.5 975.8
20 17.09 З 2 50 км 6/5 1500 м
[Sc Ac lent Ci sp]
+14.1 +7.8 66 +14 +14 1016.0 976.2
21 17.09 СЗ 3 35 км н/о +13.8 +6.6 62 +13 +13 1016.6 976.7
22 17.09 С 2 35 км н/о +12.0 +6.4 69 +11 +11 1017.8 977.6
23 17.09 СЗ 6-11
{11}
35 км н/о +12.6 +4.7 59 +10 +10 1018.0 977.9
00 18.09 СЗ 6
{12}
35 км н/о +11.4 +4.6 63 +9 +9 1018.7 978.4
01 18.09 СЗ 6
{11}
35 км н/о +10.5 +3.8 63 +7 +7 1019.3 978.8
02 18.09 СЗ 5
{11}
35 км н/о +9.6 +2.8 63 +7 +7 1020.3 979.6
03 18.09 СЗ 5
{11}
35 км {дымка} н/о +9.1 +1.9 61 +6 +6 1021.1 980.3
04 18.09 З 5 35 км н/о +9.0 +2.6 64 +6 +6 1021.7 980.9
05 18.09 СЗ 5 35 км н/о +8.4 +2.2 65 +5 +5 1022.3 981.4
06 18.09 СЗ 5
{11}
45 км 1/1 1110 м
[Sc Ci fib]
+9.6 +2.9 63 +7 +7 1022.9 982.1 +8.2
07 18.09 СЗ 8
{12}
45 км 1/1 1110 м
[Sc]
+10.4 +2.0 56 +7 +7 1023.4 982.7
08 18.09 СЗ 8
{15}
50 км 1/1 1200 м
[Sc]
+11.3 +1.3 50 +8 +9 1023.6 983.0
09 18.09 СЗ 7
{15}
50 км 1/1 1380 м
[Cu hum]
+12.6 +1.0 45 +10 +12 1023.6 983.2
10 18.09 СЗ 6-11
{12}
60 км 1/1 1500 м
[Cu hum Ci fib]
+13.6 -0.8 37 +12 +15 1023.6 983.3
11 18.09 СЗ 4
{11}
70 км 1/1 1500 м
[Cu hum Ci fib]
+15.0 +0.8 38 +14 +20 1023.3 983.3
12 18.09 З 6
{15}
>70 км 1/1 1500 м
[Cu hum Ci fib]
+15.3 -0.1 35 +14 +17 1022.8 982.8
13 18.09 СЗ 7
{12}
70 км 1/1 1500 м
[Cu hum Ci sp]
+15.7 -0.1 34 +14 +16 1022.5 982.6
14 18.09 СЗ 5
{11}
70 км 1/1 1500 м
[Cu hum Ci sp]
+15.5 -0.3 34 +14 +17 1022.4 982.5
15 18.09 СЗ 5
{12}
50 км 1/1 1500 м
[Cu hum Ci sp]
+15.9 +0.9 36 +15 +16 1022.2 982.3
16 18.09 СЗ 5 35 км н/о +15.0 +0.6 37 +14 +14 1022.3 982.3
17 18.09 СЗ 3 35 км н/о +13.1 +0.8 43 +12 +12 1022.8 982.5
18 18.09 С 1
{12}
50 км 1/0
[Ci sp]
+10.3 +1.7 55 +10 +10 1023.7 983.0 +16.9
19 18.09 С 3 50 км 1/0
[Ci sp]
+9.6 +1.7 58 +8 +8 1024.3 983.5
20 18.09 С 2 50 км 1/0
[Ac trans]
+9.0 +1.7 60 +8 +8 1024.6 983.7
21 18.09 С 2 35 км {дымка} н/о +7.8 +2.0 67 +6 +6 1024.9 983.8
22 18.09 СЗ 2 35 км н/о +8.1 +2.1 66 +6 +6 1025.0 983.9
23 18.09 СЗ 2 35 км н/о +7.1 +2.2 71 +5 +5 1025.3 984.1
00 19.09 СЗ 2 35 км {дымка} н/о +7.3 +2.1 70 +5 +5 1025.4 984.2
01 19.09 С 2 35 км н/о +6.7 +2.2 73 +5 +5 1025.4 984.1
02 19.09 СЗ 2 35 км н/о +6.3 +2.3 76 +4 +4 1025.5 984.2
03 19.09 С 3 35 км {дымка} н/о +5.2 +2.4 82 +2 +2 1025.8 984.3
04 19.09 СЗ 2 35 км н/о +5.7 +2.7 81 +3 +3 1025.9 984.5
05 19.09 СЗ 3 35 км н/о +5.5 +3.1 85 +2 +2 1026.4 984.9
06 19.09 СЗ 4 40 км 3/0
[Ci sp]
+7.6 +3.8 77 +4 +5 1026.6 985.4 +5.2
07 19.09 СЗ 6 40 км 5/0
[Ci sp]
+9.9 +3.9 66 +7 +8 1026.9 986.0
08 19.09 С 7 40 км 5/1 1000 м
[Cu hum Ci sp]
+11.3 +3.1 57 +8 +9 1027.0 986.3
09 19.09 СЗ 6 50 км 5/3 1230 м
[Cu hum Ci sp]
+12.4 +0.2 43 +10 +12 1027.2 986.6
10 19.09 С 5 50 км 6/5 1440 м
[Cu hum Ci sp]
+13.6 +0.9 42 +12 +14 1026.8 986.4

 

Местоположение метеостанции Кучарловице (Чехия): широта 48.88 долгота 16.08 высота над уровнем моря 339 м.

В архиве по умолчанию представлена погода в Кучарловице за последнюю неделю. Архивные данные за месяц целиком и за предыдущие месяцы, начиная с января 2011 года, Вы можете получить, выбрав интересующий диапазон дат из раскрывающегося списка и нажав кнопку "Ввод!".


*Определитесь, кто Вы:
робот инопланетянин человек

Внимание! Время в таблицах - всемирное. Для получения местного времени необходимо прибавить поправку, которая равна 1 ч.

Смотрите также архив погоды в соседних городах и на ближайших метеорологических станциях:

Погода в Реце (Австрия) (16 км)
Погода на АЭС Дукованы (Чехия) (25 км)
Погода в Замке Namest nad Oslav (Чехия) (32 км)
Погода в Лейзер Берге (Австрия) (41 км)
Погода в Гарс-ам-Кампе (Австрия) (45 км)
Погода в Пойсдорфе (Австрия) (47 км)
Погода в Мистельбахе (Австрия) (51 км)
Погода в Лангенлойсе (Австрия) (53 км)
Погода в Брно (Чехия) (54 км)
Погода в Церкви Мыслова (Чехия) (56 км)

Пояснения к столбцам:

Ветер - указаны скорость ветра в м/с - средняя за 10 мин, порывы в срок и между сроками (в фигурных скобках) и направление, откуда дует ветер: С - северный, СВ - северо-восточный, В - восточный, ЮВ - юго-восточный, Ю - южный, ЮЗ - юго-западный, З - западный, СЗ - северо-западный.
Видимость - горизонтальная дальность видимости в метрах или километрах. При видимости от 1 до 10 км при отсутствии осадков обычно наблюдается дымка, при ухудшении видимости до 1 км и менее - туман. В сухую погоду видимость может ухудшаться дымом, пылью или мглою.
Явления - указаны атмосферные явления, наблюдавшиеся в срок или в последний час перед сроком; фигурными скобками обозначены явления, наблюдавшиеся между сроками (за 1-3 часа до срока); квадратными скобками обозначены град или гололедные отложения с указанием их диаметра в мм.
Облачность - указаны через наклонную черту общая и нижняя облачность в баллах и высота нижней границы облаков в метрах; квадратными скобками обозначены формы облаков: Ci - перистые, Cs - перисто-слоистые, Cc - перисто-кучевые, Ac - высококучевые, As - высокослоистые, Sc - слоисто-кучевые, Ns - слоисто-дождевые, Cu - кучевые, Cb - кучево-дождевые. Подробнее классификацию облаков см. в Атласе облаков (PDF).
T - Температура воздуха - температура, измеренная на высоте 2 м над землей.
Td - Температура точки росы - температура, при понижении до которой содержащийся в воздухе водяной пар достигнет насыщения.
f - Относительная влажность воздуха - влажноcть воздуха, измеренная на высоте 2 м над землей.
Te - Эффективная температура - температура, которую ощущает одетый по сезону человек в тени. Характеристика душности погоды. При расчете учитывается влияние влажности воздуха и скорости ветра на теплоощущения человека.
Tes - Эффективная температура на солнце - температура, которую ощущает человек, с поправкой на солнечный нагрев. Характеристика знойности погоды. Зависит от высоты солнца над горизонтом, облачности и скорости ветра. Ночью, в пасмурную погоду, а также при ветре 12 м/с и более поправка равна нулю.
P - Атмосферное давление - приведенное к уровню моря атмосферное давление.
Po - Атмосферное давление - измеренное на уровне метеостанции атмосферное давление.
Tmin - Минимальная температура - минимум температуры воздуха на высоте 2 м над землей.
Tmax - Максимальная температура - максимум температуры воздуха на высоте 2 м над землей.
R - Количество осадков - Количество выпавших осадков за период времени, мм. При наведении курсора мыши на число - период времени, за который выпало указанное количество осадков.
R24 - Количество осадков - Количество выпавших осадков за 24 часа, мм.
S - Снежный покров - Высота снежного покрова, см. При наведении курсора мыши на число - состояние снежного покрова и степень покрытия местности в баллах.